Wind_Speed
30 31 32 33 33 34 34 35 36 37 38 39 38 39 40 40 40 40 40 41 41 41 40 39 39 38 38 38 39 39 39 40 38 36 36 36 33 31 30 29 27 26 27
34 35 37 37 37 37 37 38 39 40 42 42 42 42 42 43 43 43 43 42 42 42 42 41 41 42 41 41 41 42 42 42 41 39 38 36 35 32 31 29 28 27 28
35 35 36 37 37 38 39 40 41 41 41 42 43 44 45 46 46 47 47 47 45 45 45 44 44 44 43 44 45 45 45 45 43 42 40 38 37 35 33 31 29 29 29
38 39 39 39 40 41 43 44 44 45 45 45 46 46 47 49 50 51 51 52 51 50 49 49 48 49 48 47 46 45 46 45 44 43 42 40 39 37 35 33 32 32 30
40 40 40 42 45 46 48 49 50 49 49 48 48 48 48 50 51 53 54 55 54 53 54 52 51 52 53 52 49 48 47 45 43 43 42 41 40 40 37 34 34 34 33
44 44 45 48 50 50 51 54 55 54 53 53 53 54 54 54 54 54 55 56 57 56 55 54 55 55 55 53 52 51 49 47 45 44 43 42 41 41 40 37 36 36 35
47 48 48 50 51 51 52 54 55 54 54 55 57 58 58 58 58 59 59 59 58 59 57 56 57 57 56 56 55 54 52 50 49 48 46 45 43 43 43 41 38 37 35
54 53 52 53 55 56 55 55 56 59 60 61 64 65 65 61 59 59 61 62 61 61 60 58 58 58 59 58 58 57 54 53 51 50 49 49 47 45 45 42 39 38 36
52 52 54 56 58 58 57 57 60 62 64 64 66 68 67 66 66 61 59 60 62 62 61 61 60 60 59 59 60 59 57 56 54 53 51 51 51 49 47 45 42 39 38
54 60 63 68 70 70 69 67 63 64 65 66 66 68 67 67 69 69 63 60 59 60 62 63 63 63 61 60 60 59 59 58 56 54 52 51 51 50 48 46 43 43 43
55 65 68 74 80 81 80 77 68 66 68 67 67 67 67 65 65 67 68 64 60 59 61 63 64 66 65 63 61 60 59 57 55 53 51 50 51 50 50 48 48 47 48
62 72 72 73 78 79 72 65 65 71 73 72 69 67 65 62 59 60 61 60 63 64 63 63 63 64 64 62 60 60 60 58 55 53 49 48 49 50 50 51 51 50 50
74 77 74 74 76 74 68 68 72 75 77 75 70 67 61 56 54 60 62 62 64 61 57 55 55 56 60 62 61 60 59 57 55 54 52 49 49 49 48 49 49 48 49
74 73 73 77 77 79 76 76 80 83 73 70 66 63 60 56 57 61 62 59 52 48 45 43 42 42 47 55 58 55 50 50 51 50 49 48 48 49 48 46 45 43 42
72 71 73 72 69 64 65 63 65 64 62 61 58 54 53 54 57 56 50 46 42 37 33 32 32 32 32 36 44 46 45 44 39 39 41 42 43 43 45 41 39 37 36
62 61 62 58 55 54 55 56 56 52 50 51 53 54 50 48 45 40 39 38 36 32 28 28 28 27 26 24 26 32 31 31 24 26 31 36 38 32 38 35 33 32 32
53 51 52 51 49 48 49 50 46 42 41 41 43 41 38 37 37 36 33 32 32 32 34 35 32 28 25 24 21 22 26 28 29 22 25 25 28 32 33 32 27 27 28
52 50 49 46 42 39 38 36 34 34 34 31 29 29 30 32 32 32 32 34 32 33 37 33 30 26 23 20 27 26 25 34 32 19 24 27 30 27 25 25 23 24 25
49 45 42 41 37 33 30 28 28 27 25 24 25 25 25 27 30 31 30 30 30 28 29 28 24 22 23 22 26 30 28 36 32 25 26 26 23 20 19 19 20 23 23
40 35 33 31 28 25 25 24 21 20 22 25 26 26 24 23 27 27 27 27 24 22 23 22 20 20 22 24 25 28 30 38 24 18 20 22 21 19 18 20 21 22 20
30 27 24 23 24 21 19 18 20 23 25 25 21 18 17 20 21 20 19 19 18 17 19 20 19 17 19 23 23 25 24 29 23 19 22 24 23 20 19 19 20 20 18
22 20 20 20 17 17 19 22 22 19 15 11 9 11 13 15 13 11 10 11 13 15 15 14 15 18 19 20 20 21 21 29 26 30 27 23 21 18 17 17 17 18 18
17 16 16 16 18 21 23 23 17 10 6 5 6 9 10 8 3 4 3 6 10 11 13 12 10 17 19 20 23 22 24 31 30 28 25 20 18 18 17 15 17 18 18
14 15 18 22 22 20 18 14 9 5 5 5 6 7 6 5 5 4 1 4 6 7 10 11 13 17 19 21 22 26 31 30 25 23 21 18 18 18 19 17 17 18 19
18 20 18 18 13 8 6 4 2 3 4 3 2 3 3 4 6 6 5 8 9 11 17 18 16 18 19 21 21 21 23 23 21 20 19 18 16 17 19 18 18 19 20
14 14 13 12 9 7 5 4 2 3 4 5 7 10 9 7 2 1 3 6 6 6 9 13 15 15 14 15 18 19 19 18 19 19 18 17 18 19 20 20 21 21 17
Wind_Direction
282 282 282 281 278 276 276 278 279 280 281 281 279 279 279 277 275 273 271 272 273 274 276 276 275 273 272 273 274 274 275 276 277 279 278 278 277 275 273 270 273 275 274
281 282 282 281 280 279 278 278 278 280 283 284 283 282 280 278 275 274 273 272 271 272 273 272 272 273 272 271 271 271 271 273 276 278 279 279 275 272 268 267 269 270 272
282 280 280 280 280 280 280 279 280 280 280 280 280 279 279 279 277 275 273 271 269 267 267 268 268 268 268 268 269 270 271 273 274 276 276 275 273 270 267 265 264 267 269
282 283 283 283 283 283 282 282 281 281 279 279 279 278 279 280 279 277 275 273 271 268 266 264 265 266 266 265 265 266 267 269 270 271 272 271 270 269 266 263 264 267 269
285 285 284 281 278 277 278 278 278 277 278 278 279 279 279 278 277 276 275 273 271 269 268 266 263 263 264 265 263 263 263 264 264 265 266 267 266 266 267 267 268 269 271
287 285 283 282 282 283 283 283 282 282 282 282 282 282 284 283 280 276 274 272 270 268 265 263 263 263 262 262 262 261 262 262 261 261 261 261 262 263 264 266 268 271 273
284 285 286 285 284 283 282 281 280 279 280 280 280 280 280 280 281 280 276 272 269 266 263 261 260 260 260 260 260 258 257 256 256 257 259 260 259 260 262 264 267 269 271
283 282 282 281 282 282 283 283 284 285 286 286 285 284 281 278 278 279 278 276 273 269 265 260 257 255 254 254 256 257 255 253 251 252 254 256 258 261 263 265 266 267 269
283 284 284 283 284 283 283 285 288 288 287 285 285 285 285 284 281 278 277 276 275 274 271 267 261 255 251 250 251 252 252 252 251 250 249 252 256 259 262 264 265 265 265
291 297 296 293 289 286 285 283 281 280 281 281 282 283 285 286 285 280 278 278 278 276 273 271 267 262 255 248 248 249 248 247 248 248 249 250 253 256 257 259 259 259 261
289 298 299 297 293 287 282 280 276 277 281 281 281 282 284 283 283 283 280 279 278 277 273 270 267 263 259 253 247 247 247 246 245 245 247 249 251 252 254 254 255 257 259
286 298 296 294 291 282 275 275 276 280 282 282 282 283 285 284 284 286 287 285 282 279 276 271 265 260 258 257 252 248 247 246 246 246 247 249 251 251 252 253 255 257 259
291 296 293 291 286 277 275 282 288 287 285 283 282 284 283 284 285 287 287 288 284 281 277 272 267 258 252 249 249 248 247 245 244 245 246 249 250 250 250 252 255 257 259
288 290 290 291 286 278 280 287 289 288 284 281 282 283 281 279 284 286 287 286 281 278 275 273 272 267 257 251 250 249 247 244 244 245 245 245 245 246 248 251 253 257 261
285 286 290 290 290 287 288 292 289 284 281 280 278 279 281 280 282 284 283 280 277 276 273 274 274 271 264 252 250 249 246 244 242 242 241 240 240 243 246 248 252 256 258
293 292 292 288 288 288 287 284 284 286 281 277 276 277 278 279 279 279 278 277 278 277 274 277 277 275 266 253 235 237 239 235 225 239 241 239 238 231 243 249 251 255 259
292 293 291 290 291 289 287 283 282 284 284 281 275 272 273 272 274 274 274 276 275 277 277 278 273 267 258 240 223 214 217 202 192 223 234 224 235 239 243 248 253 256 262
293 292 292 294 295 293 288 283 283 284 283 281 277 276 275 272 270 272 275 275 273 266 266 269 266 256 240 229 216 218 194 186 182 201 231 227 231 240 240 245 253 260 268
295 292 291 294 295 295 294 293 293 293 291 288 284 281 279 279 278 275 272 269 269 263 260 262 259 243 232 223 219 218 207 190 193 216 235 233 233 232 236 246 254 260 265
294 292 292 294 295 298 302 302 300 296 296 293 287 286 287 287 283 274 266 265 261 256 257 255 250 235 228 221 216 216 212 196 198 214 217 220 228 235 241 250 256 260 267
295 295 295 296 299 303 304 306 306 300 300 300 299 298 296 295 287 271 269 261 255 252 254 243 237 225 219 214 215 217 204 204 207 223 225 228 235 236 240 250 261 267 267
303 297 296 301 303 305 309 314 315 305 299 303 315 325 316 304 281 271 271 248 244 240 240 227 221 228 213 207 215 215 197 196 206 218 223 234 236 236 240 250 260 263 257
308 311 312 307 303 306 313 318 315 297 286 307 333 337 338 342 294 282 249 225 226 209 208 219 219 208 194 186 189 184 193 206 218 223 223 225 226 232 234 240 251 254 258
314 313 309 309 312 312 307 306 302 288 296 332 344 355 16 49 42 18 42 118 138 184 195 197 187 170 165 175 182 190 197 203 208 210 212 221 226 228 227 237 244 250 253
314 318 326 326 324 329 333 332 337 351 319 332 5 8 9 65 57 58 98 137 133 139 142 150 150 156 169 179 184 191 198 203 207 214 219 224 227 223 223 233 243 252 256
329 331 341 354 351 340 349 1 347 303 297 286 275 300 274 257 309 44 139 159 167 146 142 149 156 159 176 185 189 191 198 208 215 219 226 236 229 226 226 234 245 254 247
Height
5847 5846 5844 5842 5841 5839 5838 5836 5834 5833 5831 5830 5829 5828 5827 5825 5825 5824 5823 5822 5821 5820 5819 5817 5817 5817 5818 5818 5817 5816 5815 5814 5814 5814 5813 5812 5812 5812 5812 5812 5812 5812 5811
5839 5837 5835 5834 5832 5830 5828 5827 5825 5823 5821 5820 5819 5817 5816 5816 5815 5813 5812 5812 5812 5811 5809 5808 5807 5807 5806 5807 5807 5806 5806 5806 5806 5806 5806 5805 5804 5804 5805 5805 5805 5805 5804
5830 5828 5826 5823 5821 5818 5817 5815 5814 5812 5811 5810 5808 5806 5804 5803 5802 5801 5800 5800 5800 5799 5798 5797 5796 5796 5796 5796 5796 5795 5796 5796 5796 5796 5797 5796 5796 5796 5796 5796 5796 5797 5796
5821 5818 5815 5811 5809 5807 5805 5803 5802 5800 5798 5798 5797 5795 5793 5791 5789 5788 5787 5786 5786 5786 5786 5786 5785 5784 5784 5785 5785 5785 5785 5785 5785 5785 5785 5785 5787 5787 5787 5786 5787 5788 5788
5811 5807 5804 5801 5799 5797 5794 5792 5790 5789 5787 5786 5785 5784 5782 5780 5778 5776 5774 5772 5772 5772 5773 5772 5771 5771 5772 5773 5773 5773 5774 5774 5774 5774 5774 5775 5776 5777 5777 5778 5779 5779 5779
5799 5795 5792 5789 5787 5785 5782 5779 5777 5775 5773 5771 5771 5770 5769 5768 5766 5764 5761 5759 5758 5758 5758 5757 5757 5757 5757 5759 5760 5761 5762 5763 5764 5764 5763 5764 5766 5767 5767 5768 5769 5769 5769
5786 5783 5779 5776 5773 5772 5769 5766 5764 5763 5761 5758 5756 5756 5756 5755 5751 5748 5746 5745 5743 5742 5742 5742 5743 5743 5743 5745 5746 5747 5749 5751 5752 5752 5754 5755 5756 5757 5757 5758 5759 5759 5758
5775 5772 5769 5766 5762 5758 5755 5751 5749 5748 5748 5744 5741 5738 5739 5743 5738 5734 5729 5726 5725 5725 5725 5726 5727 5728 5729 5730 5732 5734 5736 5738 5740 5741 5742 5743 5745 5747 5748 5749 5750 5750 5749
5760 5757 5754 5752 5749 5746 5744 5741 5736 5732 5730 5729 5723 5717 5715 5716 5716 5719 5715 5711 5708 5706 5706 5707 5707 5710 5713 5715 5716 5718 5720 5722 5725 5727 5729 5732 5733 5735 5737 5739 5740 5739 5738
5744 5740 5737 5735 5733 5730 5728 5725 5720 5716 5712 5711 5707 5700 5696 5692 5690 5693 5697 5694 5691 5688 5688 5687 5688 5690 5694 5699 5700 5702 5704 5707 5711 5714 5716 5719 5720 5722 5724 5727 5728 5727 5726
5730 5724 5719 5716 5713 5709 5706 5703 5699 5695 5691 5689 5686 5683 5680 5675 5670 5667 5670 5674 5673 5671 5668 5668 5669 5669 5673 5678 5682 5685 5689 5693 5698 5702 5705 5706 5707 5709 5712 5714 5714 5714 5714
5715 5708 5702 5696 5693 5689 5684 5681 5678 5675 5670 5668 5665 5663 5661 5659 5655 5651 5650 5652 5651 5650 5646 5645 5646 5647 5650 5655 5661 5667 5672 5679 5685 5689 5693 5695 5695 5697 5699 5701 5702 5703 5704
5697 5690 5683 5679 5673 5669 5664 5661 5658 5656 5651 5648 5646 5644 5643 5643 5638 5635 5632 5633 5630 5628 5625 5623 5623 5625 5628 5633 5639 5646 5654 5664 5670 5674 5680 5683 5684 5686 5688 5690 5691 5692 5693
5676 5671 5665 5660 5654 5649 5645 5639 5635 5633 5631 5630 5629 5628 5627 5627 5623 5620 5615 5614 5611 5610 5609 5609 5608 5609 5611 5616 5623 5630 5638 5645 5653 5660 5665 5669 5671 5675 5678 5679 5681 5682 5684
5659 5653 5646 5640 5636 5631 5625 5620 5618 5616 5613 5612 5611 5611 5611 5610 5608 5604 5601 5598 5597 5597 5598 5598 5598 5598 5598 5602 5609 5615 5623 5631 5641 5646 5652 5656 5660 5663 5666 5668 5670 5673 5675
5640 5632 5628 5624 5620 5613 5608 5607 5605 5601 5598 5597 5596 5596 5596 5595 5593 5590 5589 5588 5586 5585 5586 5588 5588 5590 5590 5592 5597 5603 5610 5620 5631 5636 5641 5644 5649 5655 5657 5660 5662 5664 5666
5628 5621 5616 5611 5605 5598 5595 5594 5591 5587 5585 5583 5582 5582 5582 5581 5581 5579 5578 5577 5577 5576 5576 5577 5578 5581 5583 5585 5591 5595 5600 5610 5621 5627 5631 5637 5639 5644 5648 5652 5654 5656 5658
5615 5610 5605 5599 5593 5588 5586 5583 5580 5577 5575 5573 5571 5571 5571 5570 5569 5569 5568 5568 5566 5567 5567 5567 5568 5571 5574 5577 5584 5588 5593 5601 5610 5619 5622 5628 5632 5637 5640 5643 5646 5648 5649
5603 5598 5593 5588 5583 5580 5577 5573 5570 5568 5566 5564 5562 5562 5561 5560 5559 5558 5557 5557 5557 5557 5558 5558 5560 5563 5567 5572 5577 5583 5588 5596 5604 5612 5615 5619 5625 5629 5632 5636 5638 5640 5641
5590 5586 5582 5578 5575 5571 5569 5566 5563 5561 5559 5557 5555 5554 5553 5552 5549 5547 5548 5548 5548 5550 5551 5553 5556 5558 5562 5567 5572 5577 5583 5590 5598 5606 5609 5613 5618 5622 5624 5628 5630 5633 5634
5579 5576 5573 5571 5567 5565 5563 5561 5559 5556 5553 5551 5549 5547 5545 5543 5539 5539 5538 5539 5541 5544 5546 5549 5551 5554 5558 5563 5568 5574 5579 5586 5593 5598 5602 5607 5612 5616 5619 5621 5623 5625 5626
5573 5570 5567 5565 5564 5562 5560 5556 5553 5549 5547 5546 5545 5543 5540 5537 5536 5534 5534 5535 5537 5540 5542 5544 5547 5552 5556 5560 5567 5572 5578 5586 5589 5593 5598 5602 5607 5610 5613 5615 5617 5618 5621
5570 5567 5565 5563 5560 5557 5554 5551 5547 5545 5544 5544 5543 5541 5538 5535 5532 5531 5532 5533 5535 5536 5538 5542 5544 5548 5552 5557 5564 5570 5577 5581 5585 5590 5594 5598 5602 5605 5608 5610 5612 5615 5617
5568 5566 5564 5560 5557 5553 5549 5547 5545 5544 5545 5545 5543 5541 5539 5535 5532 5531 5532 5533 5534 5535 5536 5539 5542 5545 5551 5557 5562 5568 5572 5577 5581 5586 5591 5594 5597 5600 5603 5606 5608 5611 5612
5567 5564 5562 5558 5554 5551 5548 5546 5546 5546 5546 5545 5544 5542 5540 5538 5536 5535 5535 5535 5535 5536 5537 5540 5543 5546 5551 5556 5560 5565 5570 5575 5578 5583 5587 5590 5592 5595 5599 5602 5605 5607 5607
5566 5563 5561 5557 5554 5552 5549 5547 5545 5544 5544 5543 5542 5541 5539 5538 5539 5540 5539 5538 5538 5539 5541 5542 5544 5547 5551 5555 5560 5564 5569 5572 5576 5580 5583 5586 5589 5592 5596 5599 5600 5601 5603